Flag for USA

Past Weather in Antioch, California, USA — Yesterday and Last 2 Weeks

Now
66 °F

Clear.


Feels Like: 66 °F
Forecast: 97 / 66 °F
Wind: 5 mph from South

Location: Buchanan Field
Current Time: Sep 27, 2020 at 4:57:55 am
Latest Report: Sep 27, 2020 at 3:53 am
Visibility: 10 mi
Pressure29.86 "Hg
Humidity: 68%
Dew Point: 55 °F
Location of AntiochLocation

Past Weather in Antioch — Graph

°F

Antioch Temperature Yesterday

Maximum temperature yesterday: 90 °F (at 2:53 pm)
Minimum temperature yesterday: 61 °F (at 5:53 am)
Average temperature yesterday: 75 °F

High & Low Weather Summary for the Past Weeks

 TemperatureHumidityPressure
High92 °F (Sep 20, 3:53 pm)90% (Sep 17, 4:53 am)30.07 "Hg (Sep 17, 4:53 am)
Low57 °F (Sep 12, 5:00 am)17% (Sep 21, 3:53 pm)29.78 "Hg (Sep 20, 4:53 pm)
Average71 °F59%29.92 "Hg
* Reported Sep 12 3:53 am — Sep 27 3:53 am, Antioch. Weather by CustomWeather, © 2020

Note: Actual official high and low records may vary slightly from our data, if they occured in-between our weather recording intervals... More about our weather records

Antioch Weather History for the Previous 24 Hours

Scroll right to see more
 ConditionsComfort  
Time TempWeatherWind HumidityBarometerVisibility
3:53 am
Sun, Sep 27
66 °FClear.5 mph68%29.86 "Hg10 mi
2:53 am68 °FClear.5 mph61%29.87 "Hg10 mi
1:53 am69 °FClear.No wind61%29.87 "Hg10 mi
12:53 am71 °FClear.7 mph57%29.87 "Hg10 mi
11:53 pm
Sat, Sep 26
73 °FClear.5 mph53%29.88 "Hg10 mi
10:53 pm75 °FClear.5 mph50%29.88 "Hg10 mi
9:53 pm76 °FClear.6 mph48%29.88 "Hg10 mi
8:53 pm78 °FClear.No wind45%29.88 "Hg10 mi
7:53 pm81 °FClear.5 mph41%29.87 "Hg10 mi
6:53 pm84 °FSunny.6 mph37%29.87 "Hg10 mi
5:53 pm87 °FSunny.9 mph31%29.87 "Hg10 mi
4:53 pm89 °FSunny.9 mph29%29.88 "Hg10 mi
3:53 pm90 °FSunny.8 mph29%29.89 "Hg10 mi
2:53 pm90 °FSunny.6 mph29%29.91 "Hg10 mi
1:53 pm87 °FSunny.7 mph32%29.94 "Hg10 mi
12:53 pm85 °FSunny.8 mph39%29.97 "Hg6 mi
11:53 am82 °FSunny.7 mph43%29.98 "Hg10 mi
10:53 am78 °FSunny.5 mph50%30.00 "Hg10 mi
9:53 am74 °FSunny.No wind57%30.00 "Hg10 mi
8:53 am70 °FSunny.3 mph61%30.00 "Hg10 mi
7:53 am63 °FSunny.No wind73%30.01 "Hg10 mi
6:53 am62 °FClear.No wind73%29.99 "Hg10 mi
5:53 am61 °FClear.5 mph72%29.98 "Hg10 mi
4:53 am63 °FClear.7 mph68%29.98 "Hg10 mi
Weather by CustomWeather, © 2020

See weather overview